Regional Weather Roundup
Issued by NWS Albany, NY

Home | Current Version | Previous Version | Graphics & Text | Print | Product List | Glossary Off
Versions: 1 2 3 4 5 6 7 8 9 10 11 12 13 14 15 16 17 18 19 20 21 22 23 24 25 26 27 28 29 30 31 32 33 34 35 36 37 38 39 40 41 42 43 44 45 46 47 48 49 50

000
ASUS41 KALY 191110
RWRALY

NEW YORK STATE HOURLY WEATHER ROUNDUP
NATIONAL WEATHER SERVICE ALBANY NY
700 AM EDT TUE SEP 19 2017

NOTE: "FAIR" INDICATES FEW OR NO CLOUDS BELOW 12,000 FEET WITH NO
SIGNIFICANT WEATHER AND/OR NO OBSTRUCTIONS TO VISIBILITY.

NYZ032-033-038>043-046>054-057>066-NYZ062>081-082-084-191200-
EAST


CITY           SKY/WX    TMP DP  RH WIND       PRES   REMARKS
ALBANY         FOG       59  58  96 CALM      30.12R VSB 1/2
GLENS FALLS    FOG       55  54  96 CALM      30.12R VSB 1/4
POUGHKEEPSIE   CLOUDY    66  62  87 N5        30.06S
MONTGOMERY     CLOUDY    66  63  90 NE9       30.07S
WHITE PLAINS   MOCLDY    68  64  87 N9        30.03F
ISLIP          CLOUDY    69  66  90 NE18G26   30.00S
NEW YORK CITY  CLOUDY    71  67  87 NE15G22   30.01S
CENTRAL PARK   CLOUDY    71  65  81 E8        30.04F
$$

NYZ005>009-017-018-044>046-055-056-191200-
CENTRAL


CITY           SKY/WX    TMP DP  RH WIND       PRES   REMARKS
FULTON         CLEAR     65  63  93 VRB3      30.07S
SYRACUSE       PTCLDY    61  61 100 E7        30.07S
ROME           CLOUDY    63  61  93 E7        30.12R
ELMIRA         PTCLDY    58  58 100 CALM      30.09S
BINGHAMTON     CLOUDY    59  59 100 SE6       30.12S FOG
MONTICELLO     CLOUDY    62  61  96 E6        30.12S
$$

NYZ026>034-041>043-087-191200-
NORTH


CITY           SKY/WX    TMP DP  RH WIND       PRES   REMARKS
WATERTOWN      CLEAR     63  61  93 CALM      30.06R
FORT DRUM      NOT AVBL
OGDENSBURG     FAIR      63  62  96 S3        30.07R
MASSENA        PTCLDY    59  58  96 CALM      30.08S
SARANAC LAKE   FOG       57  57 100 CALM      30.13R VSB<1/4
PLATTSBURGH    CLOUDY    65  61  87 S8        30.10R
$$

NYZ001>004-010>016-019>021-085-191200-
WEST


CITY           SKY/WX    TMP DP  RH WIND       PRES   REMARKS
NIAGARA FALLS  CLOUDY    67  62  84 CALM      30.02R HAZE
BUFFALO        MOCLDY    66  64  93 SE5       30.03S
DUNKIRK        PTCLDY    66  65  96 NW5       30.03R
JAMESTOWN      CLEAR     61  60  97 S6        30.09R FOG
WELLSVILLE     CLOUDY    61  58  90 S6        30.12S FOG
ROCHESTER      PTCLDY    64  63  96 SW6       30.05R
PENN YAN       CLEAR     61  58  90 W3        30.07F FOG
$$

             KEY
       WCI = WIND CHILL INDEX
       VSB = VISIBILITY
       HX  = HEAT INDEX
$$



USA.gov is the U.S. government's official web portal to all federal, state and local government web resources and services.